Worcester, MA

2:39 AM EDT on August 22, 2017 (GMT -0400)
Worcester Regional

Weather History for KORH - September, 2012

Change the Weather History Date:

Sunday, September 30, 2012

  Actual Average Record
Temperature  
Mean Temperature 55 °F 56 °F  
Max Temperature 61 °F 64 °F 83 °F (1986)
Min Temperature 48 °F 47 °F 28 °F (1941)
Degree Days  
Heating Degree Days 10 10  
Month to date heating degree days 134 153  
Since 1 July heating degree days 136 193  
Cooling Degree Days 0 0  
Month to date cooling degree days 43 42  
Year to date cooling degree days 674 468  
Growing Degree Days 4 (Base 50)    
Moisture  
Dew Point 51 °F    
Average Humidity 85    
Maximum Humidity 100    
Minimum Humidity 69    
Precipitation  
Precipitation 0.01 in 0.16 in 2.39 in (2015)
Month to date precipitation 4.80 3.93  
Year to date precipitation 33.42 35.29  
Snow  
Snow 0.00 in 0.00 in T in (1992)
Month to date snowfall 0.0 0.0  
Since 1 July snowfall 0.0 0.0  
Since 1 September snowfall 0.0 0.0  
Snow Depth -    
Sea Level Pressure  
Sea Level Pressure 29.83 in    
Wind  
Wind Speed 5 mph (NNE)    
Max Wind Speed 12 mph    
Max Gust Speed 16 mph    
Visibility 6 miles    
Events Fog , Rain    
T = Trace of Precipitation, MM = Missing Value Source: NWS Daily Summary

Daily Weather History Graph

Daily Weather History Graph

Search for Another Location

Airport or City:

Trip Planner

Search our weather history database for the weather conditions in past years. The results will help you decide how hot, cold, wet, or windy it might be!

Date:

Astronomy

Sep. 30, 2012 Rise Set
Actual Time 6:43 AM EDT 6:29 PM EDT
Civil Twilight 6:16 AM EDT 6:57 PM EDT
Nautical Twilight 5:43 AM EDT 7:30 PM EDT
Astronomical Twilight 5:10 AM EDT 8:03 PM EDT
Moon 6:30 PM EDT (9/30) 7:13 AM EDT (9/30)
Length of Visible Light 12h 41m
Length of Day
11h 46m
Full, 100% of the Moon is Illuminated
Sep 30
Full
Oct 8
Last Quarter
Oct 15
New
Oct 21
First Quarter
Oct 29
Full

Hourly Weather History & Observations

Time (EDT) Temp. Dew Point Humidity Pressure Visibility Wind Dir Wind Speed Gust Speed Precip Events Conditions
12:21 AM 53.6 °F 51.8 °F 94% 29.91 in 9.0 mi Calm Calm - N/A   Overcast
12:37 AM 53.6 °F 51.8 °F 94% 29.90 in 9.0 mi East 3.5 mph - N/A   Overcast
12:44 AM 53.6 °F 51.8 °F 94% 29.90 in 9.0 mi ESE 4.6 mph - N/A   Overcast
12:54 AM 53.1 °F 51.1 °F 93% 29.91 in 8.0 mi ENE 3.5 mph - N/A   Overcast
1:54 AM 52.0 °F 51.1 °F 97% 29.91 in 5.0 mi ESE 3.5 mph - N/A   Overcast
2:20 AM 51.8 °F 51.8 °F 100% 29.90 in 2.5 mi ENE 3.5 mph - N/A   Overcast
2:54 AM 52.0 °F 51.1 °F 97% 29.89 in 1.5 mi Calm Calm - N/A   Overcast
3:05 AM 51.8 °F 51.8 °F 100% 29.88 in 0.5 mi East 3.5 mph - N/A Fog Fog
3:43 AM 51.8 °F 51.8 °F 100% 29.87 in 2.0 mi NE 3.5 mph - N/A   Overcast
3:54 AM 52.0 °F 51.1 °F 97% 29.88 in 2.5 mi ENE 3.5 mph - N/A   Overcast
4:11 AM 51.8 °F 51.8 °F 100% 29.89 in 1.5 mi East 4.6 mph - N/A   Overcast
4:47 AM 51.8 °F 51.8 °F 100% 29.86 in 0.5 mi Calm Calm - N/A Fog Fog
4:54 AM 52.0 °F 51.1 °F 97% 29.87 in 0.5 mi Calm Calm - N/A Fog Fog
5:33 AM 51.8 °F 50.0 °F 94% 29.87 in 1.5 mi NE 3.5 mph - 0.00 in Rain Light Rain
5:54 AM 51.1 °F 50.0 °F 96% 29.87 in 1.0 mi Calm Calm - 0.00 in   Mist
6:04 AM 51.8 °F 50.0 °F 94% 29.86 in 0.5 mi NE 3.5 mph - N/A Fog Fog
6:45 AM 51.8 °F 50.0 °F 94% 29.86 in 0.5 mi North 3.5 mph - 0.01 in   Overcast
6:54 AM 51.1 °F 50.0 °F 96% 29.88 in 0.8 mi NE 3.5 mph - 0.01 in   Overcast
7:44 AM 51.8 °F 50.0 °F 94% 29.84 in 0.2 mi North 8.1 mph - N/A Fog Fog
7:54 AM 51.1 °F 51.1 °F 100% 29.86 in 0.2 mi NNE 3.5 mph - N/A Fog Fog
8:54 AM 51.1 °F 50.0 °F 96% 29.85 in 2.0 mi NNE 5.8 mph - N/A   Overcast
9:54 AM 51.8 °F 50.0 °F 94% 29.84 in 3.0 mi North 3.5 mph - N/A   Overcast
10:54 AM 52.0 °F 51.1 °F 97% 29.83 in 10.0 mi North 5.8 mph - 0.00 in Rain Light Rain
11:04 AM 51.8 °F 51.8 °F 100% 29.81 in 10.0 mi North 5.8 mph - 0.00 in Rain Light Rain
11:54 AM 55.0 °F 51.1 °F 86% 29.81 in 10.0 mi North 6.9 mph - 0.00 in   Overcast
12:28 PM 55.4 °F 51.8 °F 88% 29.80 in 10.0 mi NE 3.5 mph - N/A   Mostly Cloudy
12:54 PM 55.9 °F 51.1 °F 84% 29.80 in 10.0 mi East 3.5 mph - N/A   Overcast
1:19 PM 55.4 °F 51.8 °F 88% 29.79 in 10.0 mi Calm Calm - N/A   Overcast
1:54 PM 55.0 °F 51.1 °F 86% 29.78 in 10.0 mi Calm Calm - N/A   Overcast
2:33 PM 57.2 °F 51.8 °F 82% 29.77 in 10.0 mi West 3.5 mph - N/A   Overcast
2:54 PM 57.9 °F 51.1 °F 78% 29.76 in 10.0 mi WSW 5.8 mph - N/A   Mostly Cloudy
3:22 PM 59.0 °F 50.0 °F 72% 29.74 in 10.0 mi Calm Calm - N/A   Mostly Cloudy
3:54 PM 60.1 °F 50.0 °F 69% 29.75 in 10.0 mi SW 8.1 mph - N/A   Scattered Clouds
4:54 PM 60.1 °F 51.1 °F 72% 29.74 in 10.0 mi SSW 6.9 mph - N/A   Mostly Cloudy
5:54 PM 57.9 °F 53.1 °F 84% 29.74 in 10.0 mi SW 11.5 mph - 0.00 in   Overcast
6:54 PM 54.0 °F 50.0 °F 86% 29.74 in 10.0 mi WSW 6.9 mph - N/A   Scattered Clouds
7:54 PM 53.1 °F 50.0 °F 89% 29.74 in 10.0 mi WSW 6.9 mph - N/A   Scattered Clouds
8:54 PM 51.1 °F 48.0 °F 89% 29.75 in 10.0 mi WSW 6.9 mph - N/A   Clear
9:54 PM 50.0 °F 46.9 °F 89% 29.75 in 10.0 mi West 6.9 mph - N/A   Clear
10:54 PM 48.9 °F 46.0 °F 90% 29.75 in 10.0 mi WSW 8.1 mph - N/A   Clear
11:54 PM 48.9 °F 46.0 °F 90% 29.73 in 10.0 mi WSW 10.4 mph - N/A   Clear